Location: Bright Skies Observatory
(38.9689°N, 77.0681°W)
Time: 21:21:51
(UTC-05:00)

Daily predictions for brighter satellites

Satellite Brightness Start Highest point End
(mag) Time Altitude Azimuth Time Altitude Azimuth Time Altitude Azimuth
Cosmos 1937 Rocket 3.6 17:08:20 10° SSW 17:13:32 89° WNW 17:18:43 10° NNE
CZ-2C R/B 3.2 17:10:49 10° S 17:15:55 61° W 17:21:03 10° NNW
USA 238 DEB 4.2 17:11:06 10° NNW 17:17:42 39° NE 17:24:20 10° ESE
USA 238 4.3 17:11:13 10° NNW 17:17:48 39° NE 17:24:25 10° ESE
CSL-04 Rocket 3.7 17:13:03 10° SSE 17:18:23 64° ENE 17:23:49 10° N
Cosmos 2298 Rocket 4.2 17:15:03 10° SSW 17:20:22 83° WNW 17:25:43 10° NNE
Cosmos 1975 Rocket 3.1 17:16:03 10° S 17:20:31 88° ESE 17:25:02 10° N
Meteor 1-28 Rocket 3.6 17:17:52 10° NNE 17:21:27 42° E 17:25:02 10° S
SJ 16-02 2.7 17:19:34 10° SSE 17:22:51 21° E 17:26:10 10° NE
Abrixas rocket 3.5 17:22:26 10° W 17:25:22 30° NNW 17:28:17 10° NE
Cosmos 1697 Rocket 4.2 17:22:14 10° SE 17:25:47 17° E 17:29:20 10° ENE
USA 161 3.7 17:23:54 10° NNW 17:26:25 27° WNW 17:29:00 10° SW
ISS -2.8 17:24:39 10° NNW 17:27:34 28° NNE 17:30:28 10° E
Cosmos 1743 3.0 17:23:49 10° N 17:27:35 47° E 17:31:20 10° SSE
DELTA 2 R/B (1) 3.6 17:26:28 10° WSW 17:32:02 88° S 17:37:24 11° E
Cosmos 2082 4.4 17:29:26 10° N 17:34:21 30° ENE 17:39:15 10° ESE
Meteor 1-12 Rocket 4.3 17:29:37 10° N 17:35:21 87° E 17:41:07 10° S
Aureole 1 Rocket 4.4 17:31:14 10° NNW 17:37:21 83° WSW 17:45:08 10° SSE
PSLV R/B 3.1 17:38:17 10° WSW 17:41:27 70° SSE 17:43:43 17° E
NOSS 3-2 (A) 4.5 17:40:58 10° NNW 17:47:53 38° NE 17:55:21 10° ESE
Cosmos 2227 Rocket 2.4 17:42:27 10° NNW 17:47:56 48° ENE 17:53:22 10° SE
Landsat 4 4.0 17:44:27 10° NNE 17:48:09 45° E 17:51:48 10° S
Cosmos 1536 Rocket 3.7 17:44:30 10° S 17:48:44 51° E 17:52:57 10° NNE
IRS-1A Rocket 4.2 17:44:41 10° SSE 17:50:14 66° ENE 17:55:44 10° N
Cosmos 1025 Rocket 4.4 17:47:39 10° SE 17:50:40 19° E 17:51:25 18° ENE
Atlas Centaur 2 3.4 17:46:57 10° WSW 17:51:36 29° S 17:55:25 10° SE
Cosmos 2219 3.9 17:46:22 10° NNW 17:51:53 58° WSW 17:57:23 10° S
Cosmos 1271 Rocket 2.8 17:52:19 10° NNW 17:56:07 79° W 17:59:57 10° S
Cosmos 1655 Rocket 4.4 17:51:44 10° NNW 17:58:04 70° W 18:04:25 10° S
CORIOLIS 4.3 17:53:16 10° S 17:58:41 78° WSW 18:04:06 10° NNW
ATLAS 2AS CENTAUR R/B 3.4 17:51:44 10° SW 17:59:24 64° NW 18:07:30 10° NNE
Meteor 2-9 Rocket 4.1 17:54:09 10° N 17:59:38 62° E 18:04:56 10° SSE
ERS-2 2.6 17:56:43 10° SE 18:00:06 37° ENE 18:03:30 10° N
SKYMED 2 3.6 17:57:24 10° NNE 18:01:41 57° E 18:05:57 10° S
Cosmos 468 4.5 17:57:58 10° NNW 18:03:16 65° ENE 18:08:31 10° SSE
Cosmos 1484 Rocket 4.3 18:01:12 10° S 18:04:59 40° W 18:08:48 10° NNW
Cosmos 1980 Rocket 3.3 18:01:28 10° SSE 18:05:41 22° E 18:06:35 21° E
ATLAS 3B R/B 2.5 17:59:33 10° NNW 18:06:13 71° NE 18:12:40 10° SE
MTI 3.6 18:04:09 15° NNE 18:06:42 72° ESE 18:09:56 10° S
Cosmos 2266 Rocket 3.9 18:01:46 10° N 18:07:49 67° E 18:13:57 10° SSE
MONITOR-E 4.2 18:07:48 10° SSE 18:10:45 52° ENE 18:13:44 10° N
USA 215 4.0 18:06:06 10° SSE 18:12:27 55° SW 18:18:52 10° NW
Cosmos 158 Rocket 3.8 18:08:41 10° NNW 18:13:48 79° ENE 18:18:44 10° SSE
Cosmos 2297 Rocket 2.1 18:09:20 10° NNW 18:14:59 69° ENE 18:20:37 10° SSE
SPOT 3 Rocket 3.5 18:15:03 10° SSE 18:20:08 62° ENE 18:25:14 10° N
NOSS 3-4 (A) 3.7 18:14:49 10° S 18:20:45 50° ESE 18:23:50 28° ENE
NOSS 3-4 (C) 3.7 18:14:56 10° S 18:20:51 49° ESE 18:23:53 28° ENE
Cosmos 1666 4.3 18:18:57 10° NNW 18:22:23 35° W 18:25:48 10° SSW
CZ-4 R/B 2.9 18:19:52 10° SSW 18:23:27 37° W 18:27:06 10° NNW
MINOTAUR IV R/B 4.5 18:22:07 10° NNW 18:26:35 60° ENE 18:31:00 10° SSE
Cosmos 1455 Rocket 4.4 18:23:21 10° NNW 18:27:29 40° W 18:31:34 10° SSW
Meteor 2-4 Rocket 4.0 18:23:39 10° SSW 18:29:04 64° W 18:34:25 10° N
Cosmos 1656 3.6 18:24:19 10° SSW 18:29:54 84° WNW 18:33:56 19° NNE
YAOGAN 1 3.6 18:29:33 10° S 18:33:42 46° W 18:37:53 10° NNW
Thor Agena Rocket 4.2 18:35:10 35° ESE 18:35:10 35° ESE 18:39:32 10° SSE
ALOS 2.2 18:33:56 10° SSE 18:38:35 85° WSW 18:43:18 10° NNW
Cosmos 1244 Rocket 4.5 18:33:46 10° N 18:39:46 53° E 18:45:46 10° SSE
Okean 2 3.2 18:38:01 10° S 18:42:05 75° E 18:42:23 70° NE
Cosmos 2369 4.3 18:39:22 10° SW 18:44:55 55° WNW 18:49:15 17° N
Meteor 1-15 Rocket 4.2 18:39:40 10° N 18:45:38 89° E 18:51:32 10° S
Cosmos 2278 4.3 18:40:44 10° SW 18:46:18 57° WNW 18:50:28 18° N
Cosmos 2360 4.5 18:41:33 10° S 18:46:57 46° ESE 18:46:58 46° ESE
Hubble Space Telescope 3.1 18:45:47 10° SW 18:48:17 16° S 18:49:44 13° SSE
CENTAUR R/B 3.7 18:41:24 10° NNW 18:48:23 33° NE 18:48:45 33° NE
Cosmos 1269 Rocket 4.0 18:43:51 10° NNW 18:49:10 82° WSW 18:54:27 10° SSE
COSMO-SKYMED 1 3.8 18:45:36 10° N 18:49:39 40° WNW 18:53:42 10° SW
Cosmos 1553 Rocket 4.0 18:53:13 10° SSE 18:59:25 55° E 18:59:34 55° E
FENGYUN 3A 4.2 18:54:37 10° S 18:59:55 59° W 19:05:14 10° NNW
SJ 16-02 3.0 18:57:20 10° SW 19:01:13 31° WNW 19:03:46 18° NNW
Cosmos 1417 Rocket 4.3 18:56:08 10° S 19:02:12 67° E 19:03:20 56° NE
ISS -1.8 19:01:05 10° WNW 19:03:20 28° WSW 19:03:20 28° WSW
Gbstr 26 Del rocket 4.4 18:56:27 10° WSW 19:04:28 75° NW 19:06:48 47° NE
SL-24 R/B - RUBIN 2 4.1 19:02:35 10° SSW 19:08:53 81° ESE 19:09:21 75° ENE
Cosmos 1697 Rocket 3.1 19:03:36 10° SW 19:09:10 60° WNW 19:11:14 38° N
Okean 1-7 Rocket 4.0 19:05:13 10° SSW 19:08:51 57° SW 19:08:51 57° SW
FengYun 1-2 T 4.2 19:11:46 10° SSE 19:17:22 81° WSW 19:23:02 10° NNW
DELTA 2 R/B (1) 3.6 19:13:00 10° W 19:18:10 77° WNW 19:18:10 77° WNW
Atlas Centaur 2 4.1 19:37:20 10° SW 19:38:54 13° SW 19:38:54 13° SW
NOSS 3-2 (C) 4.3 19:37:55 10° NW 19:45:31 65° WSW 19:48:55 38° S
Cosmos 1980 Rocket 3.1 19:43:49 10° SW 19:48:26 45° W 19:48:26 45° W
Cosmos 2344 4.5 19:54:54 10° SSW 19:59:02 35° S 19:59:02 35° S
CENTAUR R/B 4.2 20:31:43 10° NW 20:35:59 36° NW 20:35:59 36° NW
